[[{"header":{"parameterUnit":"m.s-1","parameterCategory":1,"la1":30.2991,"la2":30.254,"lo1":-89.0895,"lo2":-89.0444,"dy":0.0017,"dx":0.0017,"nx":28,"ny":28,"refTime":"2024-07-22T03:00:00:Z","depth":0,"parameterNumber":2,"parameterNumberName":"U-component_of_WINDS"},"data":[0,0,0,0,0,0,0,0,0,0,0,0,0,0,0,0,0,0,0,0,0,0,0,0,0,0,0,0,0,0,0,0,0,0,0,0,0,0,0,0,0,0,0,0,0,0,0,0,0,0,0,0,0,0,0,0,0,0,1.4286,1.4287,0,1.439,1.4392,1.4393,1.4453,1.4454,1.4454,1.4454,1.4564,1.4566,1.4569,0,0,0,0,0,0,0,0,0,0,0,0,0,1.4141,1.4144,1.4286,1.4287,1.4289,1.439,1.4392,1.4393,1.4453,1.4454,1.4454,1.4454,1.4563,1.4566,1.4569,0,0,0,0,0,0,0,0,0,0,0,0,0,1.4221,1.4144,1.4286,1.4331,1.4336,1.439,1.4392,1.4393,1.4453,1.4454,1.4454,1.4454,1.4562,1.4566,1.457,1.4588,0,0,1.4582,1.4584,0,0,0,0,0,0,0,0,1.4216,1.4226,1.4323,1.4328,1.4334,1.4409,1.4381,1.4459,1.4453,1.4409,1.4454,1.4454,1.4512,1.452,1.4539,1.4593,1.4598,1.4582,1.4585,1.4587,1.4588,0,0,0,0,0,0,0,1.4211,1.4222,1.4327,1.4324,1.4331,1.4347,1.4358,1.4396,1.4457,1.4413,1.4417,1.4429,1.4515,1.4535,1.4542,1.4599,1.4582,1.4586,1.4588,1.459,1.4673,1.4673,0,0,0,0,0,0,1.4197,1.4217,1.4324,1.4331,1.4274,1.4349,1.4362,1.4385,1.4457,1.4468,1.4428,1.4431,1.4528,1.4537,1.4546,1.4572,1.4587,1.459,1.4593,1.4673,1.4673,1.4673,0,0,0,0,0,0,1.4194,1.4206,1.432,1.4275,1.4291,1.4351,1.4376,1.4386,1.4407,1.4469,1.448,1.4437,1.4529,1.4541,1.4577,1.4577,1.4592,1.4596,1.4674,1.4673,1.4673,1.4624,0,0,0,0,0,0,1.419,1.4205,1.4212,1.4275,1.4293,1.4348,1.4376,1.4388,1.4413,1.4418,1.448,1.4491,1.453,1.457,1.4581,1.4583,1.4599,1.4674,1.4674,1.4673,1.4626,1.4622,1.4619,0,0,0,0,0,1.4184,1.4194,1.4212,1.4224,1.4302,1.4348,1.4358,1.4402,1.4413,1.4421,1.4461,1.4489,1.4575,1.4574,1.4586,1.4589,1.4674,1.4674,1.4673,1.4627,1.4623,1.4619,0,0,0,0,0,0,1.4131,1.4203,1.4224,1.4254,1.4294,1.4358,1.4369,1.4395,1.4434,1.4437,1.449,1.4504,1.4535,1.4566,1.4563,1.461,1.4628,1.463,1.4589,1.4585,1.4581,1.4573,1.4602,0,0,0,0,0,1.4122,1.4152,1.4214,1.4235,1.4254,1.4308,1.4329,1.4359,1.4403,1.4421,1.4464,1.4506,1.4543,1.4566,1.4603,1.4631,1.4645,1.4639,1.4635,1.4632,1.4633,1.465,1.4648,1.4671,1.4671,1.4671,0,0,1.4106,1.4149,1.4165,1.4226,1.426,1.429,1.4322,1.4353,1.4376,1.4426,1.4462,1.4495,1.4546,1.4578,1.4594,1.4605,1.463,1.4631,1.4628,1.4631,1.4649,1.4647,1.4645,1.4671,1.4671,1.4671,0,0,1.4091,1.4126,1.4148,1.4181,1.4233,1.4268,1.4273,1.4333,1.4356,1.4394,1.4432,1.4461,1.4523,1.4557,1.4583,1.458,1.4608,1.4591,1.4572,1.4588,1.4587,1.4585,1.4584,1.4583,1.4592,1.4592,1.4592,0,1.4064,1.411,1.4155,1.4184,1.421,1.4255,1.4278,1.4309,1.437,1.4387,1.4398,1.4476,1.4514,1.4554,1.4553,1.4573,1.4581,1.4584,1.4583,1.4582,1.4582,1.4581,1.4581,1.459,1.459,1.459,1.459,0,1.4074,1.4106,1.4117,1.4174,1.4201,1.4226,1.4276,1.4298,1.4326,1.436,1.4398,1.4445,1.4492,1.4504,1.4532,1.4548,1.4553,1.4573,1.4591,1.4576,1.4577,1.4577,1.4586,1.4587,1.4588,1.4588,0,0,1.4028,1.411,1.4113,1.4139,1.4199,1.4225,1.4253,1.4298,1.4316,1.4357,1.4381,1.4433,1.4451,1.448,1.4512,1.4526,1.4521,1.4544,1.4546,1.4538,1.4542,1.4527,1.4526,1.454,1.454,1.454,1.4538,0,1.4022,1.4072,1.4114,1.4149,1.4179,1.4223,1.4247,1.4287,1.432,1.4351,1.4388,1.4423,1.4444,1.4462,1.4478,1.4518,1.4522,1.4519,1.4563,1.4564,1.4549,1.4526,1.451,1.4506,1.4538,1.4538,1.4539,0,1.4021,1.4059,1.4097,1.4153,1.4168,1.4188,1.4233,1.4262,1.4308,1.4331,1.4363,1.4396,1.4428,1.4443,1.4488,1.4485,1.4505,1.4528,1.4529,1.4534,1.455,1.4531,1.4506,1.4505,1.4539,1.4539,1.4539,0,1.3983,1.4044,1.4075,1.4096,1.4163,1.4176,1.4205,1.4252,1.4276,1.4316,1.4332,1.4375,1.4399,1.4431,1.4476,1.4483,1.4516,1.4535,1.4536,1.4535,1.4541,1.454,1.4518,1.4554,1.4554,1.4554,1.4554,0,1.3972,1.3993,1.4058,1.4077,1.4103,1.4151,1.4175,1.4208,1.4248,1.4275,1.4316,1.434,1.4397,1.4428,1.4463,1.4494,1.4505,1.4525,1.4534,1.4521,1.4518,1.4535,1.4536,1.4554,1.4554,1.4554,1.4554,0,1.3934,1.3979,1.4015,1.4075,1.4091,1.4107,1.4159,1.4179,1.4214,1.4247,1.4257,1.4313,1.4351,1.4399,1.4453,1.4477,1.4504,1.4518,1.4488,1.4493,1.4492,1.4491,1.448,1.4481,1.4516,1.4516,1.4516,0,1.3923,1.3941,1.4002,1.4022,1.405,1.4082,1.4107,1.4155,1.4179,1.4233,1.4247,1.4288,1.4324,1.4384,1.4429,1.4471,1.4486,1.4479,1.4493,1.4479,1.4486,1.4484,1.4486,1.4476,1.4475,1.4474,1.4474,0,1.39,1.3921,1.3955,1.3996,1.4024,1.406,1.4097,1.4111,1.4167,1.4193,1.4232,1.4259,1.4314,1.4355,1.4402,1.4433,1.4463,1.4469,1.4472,1.4459,1.444,1.445,1.4478,1.4469,1.447,1.447,1.447,1.4471,1.3875,1.3892,1.3938,1.3975,1.4008,1.4041,1.4063,1.41,1.4134,1.4181,1.4208,1.4247,1.4293,1.4359,1.4389,1.442,1.4431,1.4434,1.4435,1.4435,1.4431,1.4435,1.4429,1.4429,1.4429,1.443,1.443,0,1.3853,1.3885,1.3918,1.3968,1.3996,1.4021,1.4064,1.4086,1.4119,1.4159,1.4193,1.4238,1.4278,1.4326,1.4369,1.4385,1.44,1.4395,1.4394,1.4401,1.4419,1.4413,1.4382,1.4382,1.4382,1.4382,1.4382,1.4382,1.3845,1.3876,1.3902,1.3949,1.3981,1.4018,1.404,1.4072,1.4104,1.4152,1.4185,1.4216,1.426,1.4306,1.4344,1.4357,1.4371,1.4361,1.4379,1.4395,1.4399,1.4403,1.4397,1.4364,1.4364,1.4357,1.4357,1.4357]},{"header":{"parameterUnit":"m.s-1","parameterCategory":1,"la1":30.2991,"la2":30.254,"lo1":-89.0895,"lo2":-89.0444,"dy":0.0017,"dx":0.0017,"nx":28,"ny":28,"refTime":"2024-07-22T03:00:00:Z","depth":0,"parameterNumber":3,"parameterNumberName":"V-component_of_WINDS"},"data":[0,0,0,0,0,0,0,0,0,0,0,0,0,0,0,0,0,0,0,0,0,0,0,0,0,0,0,0,0,0,0,0,0,0,0,0,0,0,0,0,0,0,0,0,0,0,0,0,0,0,0,0,0,0,0,0,0,0,2.0423,2.0422,0,2.0373,2.0373,2.0372,2.0375,2.0375,2.0376,2.0377,2.0322,2.032,2.0318,0,0,0,0,0,0,0,0,0,0,0,0,0,2.0515,2.0513,2.0423,2.0422,2.0422,2.0373,2.0373,2.0372,2.0374,2.0375,2.0376,2.0377,2.0323,2.0321,2.0318,0,0,0,0,0,0,0,0,0,0,0,0,0,2.0471,2.0513,2.0423,2.0417,2.0416,2.0374,2.0373,2.0372,2.0374,2.0375,2.0376,2.0377,2.0324,2.0321,2.0318,2.0277,0,0,2.0308,2.0307,0,0,0,0,0,0,0,0,2.0474,2.0468,2.0419,2.0418,2.0416,2.0381,2.0385,2.034,2.0374,2.039,2.0377,2.0378,2.0341,2.0336,2.0325,2.0274,2.0272,2.0308,2.0306,2.0304,2.0303,0,0,0,0,0,0,0,2.0477,2.047,2.0403,2.0418,2.0417,2.0415,2.041,2.0377,2.036,2.0389,2.0389,2.0383,2.034,2.0328,2.0323,2.0271,2.0308,2.0305,2.0303,2.0302,2.018,2.0179,0,0,0,0,0,0,2.0482,2.0472,2.0405,2.0402,2.0448,2.0413,2.0407,2.0391,2.036,2.0357,2.0382,2.0383,2.0333,2.0327,2.0321,2.0269,2.0304,2.0301,2.03,2.0182,2.018,2.0179,0,0,0,0,0,0,2.0484,2.0476,2.0407,2.0437,2.0428,2.041,2.0392,2.039,2.0377,2.0355,2.0352,2.0373,2.0333,2.0326,2.0287,2.0267,2.03,2.0297,2.0183,2.0181,2.0179,2.0165,0,0,0,0,0,0,2.0486,2.0476,2.0462,2.0437,2.0427,2.0375,2.0391,2.0388,2.0372,2.0373,2.0345,2.0342,2.0333,2.0292,2.0284,2.0263,2.0295,2.0185,2.0182,2.018,2.0167,2.0162,2.0159,0,0,0,0,0,2.0489,2.046,2.0461,2.0453,2.0408,2.0374,2.0368,2.036,2.0371,2.0355,2.034,2.0343,2.0271,2.0288,2.0279,2.0257,2.0186,2.0183,2.018,2.0169,2.0163,2.0159,0,0,0,0,0,0,2.0482,2.0456,2.0458,2.0419,2.0399,2.0374,2.0354,2.0355,2.033,2.0332,2.0322,2.0316,2.0276,2.0263,2.0282,2.0214,2.023,2.0225,2.0224,2.0218,2.0214,2.0218,2.0292,0,0,0,0,0,2.0476,2.0452,2.043,2.0398,2.0388,2.0373,2.0357,2.0353,2.0331,2.0322,2.0305,2.0282,2.0254,2.0236,2.0209,2.0165,2.0157,2.0145,2.0141,2.0138,2.0133,2.0106,2.0099,2.0169,2.0169,2.0169,0,0,2.0463,2.0446,2.0431,2.0396,2.038,2.0352,2.0365,2.0337,2.0316,2.0317,2.0279,2.0266,2.0239,2.0197,2.0178,2.0185,2.0113,2.0134,2.0132,2.0129,2.0102,2.0096,2.009,2.0167,2.0167,2.0168,0,0,2.0425,2.0411,2.0382,2.0365,2.034,2.033,2.0323,2.0298,2.0289,2.0251,2.025,2.0225,2.0178,2.0158,2.0142,2.0094,2.0094,2.0086,2.0064,2.0037,2.0031,2.0026,2.0007,2.0,2.0081,2.0081,2.0081,0,2.0412,2.0373,2.0366,2.0337,2.032,2.032,2.0289,2.0272,2.024,2.0227,2.0236,2.0175,2.0158,2.0109,2.0097,2.0085,2.0074,2.0088,2.0033,2.0028,2.0023,2.0004,1.9997,2.008,2.008,2.0081,2.0081,0,2.0356,2.0328,2.0307,2.0276,2.0257,2.0226,2.0213,2.0194,2.0191,2.0179,2.0139,2.0118,2.0085,2.0074,2.0071,2.0024,2.0029,2.0036,2.0051,2.0016,1.9997,1.999,2.0079,2.0079,2.008,2.008,0,0,2.0312,2.0277,2.0269,2.0253,2.0225,2.0202,2.0171,2.014,2.0123,2.01,2.0071,2.003,2.0035,2.0017,2.0011,1.9988,1.9948,1.9997,1.9996,1.9986,1.9892,1.9885,1.9877,1.9949,1.9947,1.9946,1.9893,0,2.027,2.0215,2.0207,2.0158,2.0131,2.013,2.0102,2.008,2.0068,2.0041,2.0028,1.9998,2.0009,1.9997,1.9974,1.9958,1.9928,1.9962,1.9919,1.9918,1.9924,1.9868,1.9862,1.9813,1.9886,1.9885,1.9884,0,2.0213,2.0188,2.0136,2.0109,2.0097,2.0073,2.0042,2.0018,1.9992,1.9985,1.9963,1.996,1.9924,1.9942,1.9892,1.9914,1.9896,1.9885,1.9883,1.9877,1.9897,1.9858,1.9797,1.9789,1.9873,1.9874,1.9875,0,2.0183,2.0137,2.0099,2.0086,2.0054,2.0036,2.0022,1.9998,1.9979,1.9952,1.9938,1.9908,1.989,1.9865,1.9852,1.9867,1.9801,1.9819,1.9791,1.9791,1.9776,1.9777,1.9709,1.9768,1.9769,1.9769,1.9769,0,2.0135,2.0102,2.0085,2.0061,2.0024,2.0014,1.9977,1.9963,1.9941,1.9913,1.9911,1.9884,1.987,1.984,1.983,1.9787,1.978,1.9771,1.9768,1.977,1.9771,1.9757,1.9759,1.9767,1.9767,1.9768,1.9768,0,2.0094,2.0082,2.004,2.0013,2.0005,1.9979,1.9955,1.9931,1.9918,1.9883,1.9874,1.9854,1.9819,1.9804,1.9761,1.9753,1.9704,1.9705,1.9713,1.9711,1.9684,1.9686,1.9603,1.959,1.966,1.966,1.9659,0,2.0064,2.0039,2.0009,1.999,1.9975,1.9946,1.9926,1.9915,1.9894,1.9862,1.9841,1.9806,1.9777,1.9721,1.9701,1.9667,1.9666,1.9639,1.9661,1.9662,1.9662,1.9663,1.9659,1.9634,1.9634,1.9633,1.9633,0,2.0009,2.0004,1.9976,1.9946,1.9922,1.9897,1.9873,1.9858,1.9842,1.9819,1.9783,1.9761,1.9716,1.968,1.9645,1.9628,1.9626,1.9626,1.9618,1.9618,1.9622,1.9617,1.9699,1.9628,1.9628,1.9629,1.9629,1.9629,1.9971,1.9947,1.9922,1.9891,1.9871,1.9848,1.9823,1.9807,1.9778,1.9741,1.9736,1.9697,1.9669,1.9622,1.9603,1.9571,1.9578,1.9566,1.9562,1.9559,1.9556,1.9629,1.9565,1.9565,1.9565,1.9565,1.9565,0,1.9914,1.9898,1.9869,1.9835,1.9809,1.9811,1.9784,1.9762,1.9728,1.9703,1.9674,1.9631,1.9596,1.9573,1.9537,1.9515,1.9513,1.9506,1.9506,1.9502,1.9554,1.9563,1.9508,1.9508,1.9508,1.9508,1.9508,1.9508,1.9881,1.9841,1.9832,1.9781,1.9764,1.9726,1.971,1.9687,1.9667,1.962,1.9591,1.9577,1.9551,1.9513,1.9479,1.9473,1.9459,1.945,1.9444,1.9493,1.9498,1.9504,1.9513,1.9448,1.9448,1.9394,1.9394,1.9394]}]]